Weather History for KLYH - February, 2014

Change the Weather History Date:

Wednesday, February 12, 2014

  Actual Average Record
Temperature  
Mean Temperature 22 °F 38 °F  
Max Temperature 25 °F 48 °F 72 °F (1999)
Min Temperature 19 °F 27 °F 5 °F (1899)
Degree Days  
Heating Degree Days 43 27  
Month to date heating degree days 349 340  
Since 1 July heating degree days 3091 3012  
Cooling Degree Days 0 0  
Month to date cooling degree days 0 0  
Year to date cooling degree days 0 0  
Moisture  
Dew Point 15 °F    
Average Humidity 71    
Maximum Humidity 92    
Minimum Humidity 50    
Precipitation  
Precipitation 0.63 in 0.10 in 1.05 in (1993)
Month to date precipitation 2.41 1.26  
Year to date precipitation 5.68 4.40  
Snow  
Snow 5.90 in - - ()
Month to date snowfall 5.9  
Since 1 July snowfall 7.9  
Snow Depth 6.00 in    
Sea Level Pressure  
Sea Level Pressure 30.26 in    
Wind  
Wind Speed 10 mph (NNE)    
Max Wind Speed 22 mph    
Max Gust Speed 29 mph    
Visibility 4 miles    
Events Fog , Snow    
T = Trace of Precipitation, MM = Missing Value Source: NWS Daily Summary

Daily Weather History Graph

Daily Weather History Graph

Search for Another Location

Airport or City:

Trip Planner

Search our weather history database for the weather conditions in past years. The results will help you decide how hot, cold, wet, or windy it might be!

Date:

Astronomy

Feb. 12, 2014 Rise Set
Actual Time 7:09 AM EST 5:53 PM EST
Civil Twilight 6:42 AM EST 6:20 PM EST
Nautical Twilight 6:11 AM EST 6:50 PM EST
Astronomical Twilight 5:41 AM EST 7:21 PM EST
Moon 4:06 PM EST (2/12) 5:23 AM EST (2/12)
Length of Visible Light 11h 37m
Length of Day
10h 44m
Waxing Gibbous, 95% of the Moon is Illuminated
Feb 12
Waxing Gibbous
Feb 14
Full
Feb 22
Last Quarter
Mar 1
New
Mar 8
First Quarter

Hourly Weather History & Observations

Time (EST) Temp. Windchill Dew Point Humidity Pressure Visibility Wind Dir Wind Speed Gust Speed Precip Events Conditions
12:54 AM 21.9 °F 13.4 °F 10.0 °F 60% 30.44 in 10.0 mi NNE 6.9 mph - N/A   Clear
1:54 AM 21.9 °F 14.5 °F 10.0 °F 60% 30.44 in 10.0 mi NNE 5.8 mph - N/A   Clear
2:54 AM 21.0 °F 13.4 °F 10.0 °F 63% 30.45 in 10.0 mi NNE 5.8 mph - N/A   Clear
3:54 AM 21.0 °F 12.4 °F 9.0 °F 60% 30.44 in 10.0 mi NNE 6.9 mph - N/A   Clear
4:54 AM 19.9 °F 11.1 °F 10.0 °F 65% 30.45 in 10.0 mi NNE 6.9 mph - N/A   Clear
5:54 AM 19.9 °F 10.1 °F 9.0 °F 62% 30.46 in 10.0 mi NNE 8.1 mph - N/A   Clear
6:54 AM 19.0 °F 9.0 °F 8.1 °F 62% 30.44 in 10.0 mi NNE 8.1 mph - N/A   Clear
7:54 AM 19.9 °F 10.1 °F 8.1 °F 60% 30.47 in 10.0 mi NE 8.1 mph - N/A   Clear
8:54 AM 21.0 °F 9.9 °F 8.1 °F 57% 30.46 in 10.0 mi NE 10.4 mph - N/A   Clear
9:54 AM 21.9 °F 12.5 °F 8.1 °F 55% 30.49 in 10.0 mi NE 8.1 mph - N/A   Clear
10:54 AM 23.0 °F 14.7 °F 9.0 °F 55% 30.45 in 10.0 mi NE 6.9 mph - N/A   Clear
11:54 AM 24.1 °F 17.0 °F 9.0 °F 53% 30.43 in 10.0 mi ENE 5.8 mph - N/A   Partly Cloudy
12:54 PM 24.1 °F - 9.0 °F 53% 30.41 in 10.0 mi Calm Calm - N/A   Overcast
1:54 PM 24.1 °F 13.7 °F 9.0 °F 53% 30.37 in 10.0 mi NE 10.4 mph - N/A   Overcast
2:54 PM 24.1 °F 13.7 °F 10.9 °F 57% 30.34 in 2.5 mi ENE 10.4 mph - 0.00 in Snow Light Snow
3:01 PM 23.0 °F 14.7 °F 12.2 °F 63% 30.29 in 3.0 mi ENE 6.9 mph - 0.00 in Snow Light Snow
3:06 PM 23.0 °F 15.8 °F 12.2 °F 63% 30.29 in 2.5 mi ENE 5.8 mph - 0.00 in Snow Light Snow
3:29 PM 21.2 °F 9.5 °F 15.8 °F 80% 30.28 in 1.2 mi NE 11.5 mph - 0.00 in Snow Light Snow
3:47 PM 21.2 °F 10.1 °F 15.8 °F 80% 30.28 in 0.8 mi NE 10.4 mph - 0.00 in Snow Light Snow
3:54 PM 21.0 °F 9.9 °F 18.0 °F 88% 30.30 in 0.5 mi NE 10.4 mph - 0.01 in Fog , Snow Snow
4:27 PM 19.4 °F 7.9 °F 17.6 °F 93% 30.25 in 0.5 mi NNE 10.4 mph - 0.02 in Fog , Snow Snow
4:43 PM 19.4 °F 6.0 °F 17.6 °F 93% 30.23 in 0.2 mi North 13.8 mph - 0.04 in Fog , Snow Snow
4:54 PM 19.9 °F 8.6 °F 18.0 °F 92% 30.26 in 0.2 mi NNE 10.4 mph - 0.06 in Fog , Snow Snow
5:08 PM 19.4 °F 6.0 °F 17.6 °F 93% 30.22 in 0.5 mi NNE 13.8 mph 19.6 mph 0.01 in Fog , Snow Snow
5:49 PM 19.4 °F 5.5 °F 17.6 °F 93% 30.20 in 1.0 mi NNE 15.0 mph 25.3 mph 0.04 in Snow Light Snow
5:54 PM 19.9 °F 7.3 °F 17.1 °F 89% 30.24 in 1.0 mi NNE 12.7 mph 25.3 mph 0.04 in Snow Light Snow
6:30 PM 19.4 °F 6.0 °F 17.6 °F 93% 30.19 in 0.5 mi NNE 13.8 mph - 0.03 in Fog , Snow Snow
6:54 PM 19.9 °F 7.3 °F 17.1 °F 89% 30.21 in 0.8 mi NNE 12.7 mph - 0.05 in Snow Light Snow
7:54 PM 19.9 °F 6.2 °F 17.1 °F 89% 30.18 in 0.8 mi NNE 15.0 mph 21.9 mph 0.07 in Snow Light Snow
8:54 PM 19.9 °F 6.2 °F 17.1 °F 89% 30.14 in 0.8 mi NNE 15.0 mph 21.9 mph 0.08 in Snow Light Snow
9:54 PM 19.9 °F 5.2 °F 18.0 °F 92% 30.07 in 0.5 mi NNE 17.3 mph 24.2 mph 0.12 in Fog , Snow Snow
10:06 PM 19.4 °F 3.2 °F 19.4 °F 100% 30.01 in 0.5 mi NNE 20.7 mph 25.3 mph 0.02 in Fog , Snow Snow
10:18 PM 21.2 °F 6.8 °F 19.4 °F 93% 30.00 in 0.5 mi NNE 17.3 mph 26.5 mph 0.04 in Fog , Snow Snow
10:41 PM 21.2 °F 7.8 °F 19.4 °F 93% 29.99 in 1.0 mi NNE 15.0 mph 21.9 mph 0.09 in   Mist
10:54 PM 21.9 °F 8.7 °F 19.9 °F 92% 30.02 in 1.5 mi North 15.0 mph 21.9 mph 0.11 in Snow Light Snow
11:03 PM 21.2 °F 7.8 °F 19.4 °F 93% 29.97 in 1.2 mi North 15.0 mph 23.0 mph 0.01 in Snow Light Snow
11:10 PM 21.2 °F 6.8 °F 21.2 °F 100% 29.97 in 1.5 mi North 17.3 mph 21.9 mph 0.02 in Snow Light Snow
11:30 PM 23.0 °F 10.1 °F 21.2 °F 93% 29.96 in 1.0 mi North 15.0 mph 26.5 mph 0.05 in Snow Light Snow
11:42 PM 24.8 °F 10.3 °F 21.2 °F 86% 29.94 in 1.5 mi NNE 20.7 mph 28.8 mph 0.06 in Snow Light Snow
11:54 PM 24.1 °F 9.8 °F 21.9 °F 91% 29.96 in 1.5 mi NNE 19.6 mph 28.8 mph 0.08 in Snow Light Snow